This is the latest recevied weather packets stored in our database for station/object KD9CCP. If no packets are shown the sender has not sent any weather packets the latest 10 day(s).
| Time | Temp. | Humidity | Pressure | Rain* | Wind** | Luminosity | Snow |
|---|---|---|---|---|---|---|---|
| 1778137316 | 2.22° C | 77% | 1014.1 hPa | 0 mm | - | 0 W/m² | - |
| 1778137012 | 2.22° C | 79% | 1013.9 hPa | 0 mm | - | 0 W/m² | - |
| 1778136708 | 2.22° C | 79% | 1014.1 hPa | 0 mm | - | 0 W/m² | - |
| 1778136406 | 2.22° C | 81% | 1014.1 hPa | 0 mm | - | 0 W/m² | - |
| 1778130710 | 2.22° C | 80% | 1014.8 hPa | 0 mm | - | 0 W/m² | - |
| 1778130407 | 2.22° C | 80% | 1014.8 hPa | 0 mm | - | 0 W/m² | - |
| 1778130104 | 2.22° C | 77% | 1014.8 hPa | 0 mm | - | 0 W/m² | - |
| 1778129801 | 2.22° C | 78% | 1014.9 hPa | 0 mm | - | 0 W/m² | - |
| 1778129498 | 1.67° C | 80% | 1014.7 hPa | 0 mm | - | 0 W/m² | - |
| 1778129195 | 1.67° C | 80% | 1014.8 hPa | 0 mm | - | 0 W/m² | - |
| 1778128892 | 1.67° C | 80% | 1015 hPa | 0 mm | - | 0 W/m² | - |
| 1778128587 | 1.67° C | 80% | 1014.8 hPa | 0 mm | - | 0 W/m² | - |
| 1778128284 | 1.67° C | 79% | 1014.9 hPa | 0 mm | - | 0 W/m² | - |
| 1778127981 | 1.67° C | 79% | 1014.8 hPa | 0 mm | - | 0 W/m² | - |
| 1778127676 | 1.67° C | 79% | 1014.9 hPa | 0 mm | - | 0 W/m² | - |
| 1778127373 | 1.67° C | 78% | 1014.8 hPa | 0 mm | - | 0 W/m² | - |
| 1778127070 | 1.67° C | 79% | 1014.9 hPa | 0 mm | - | 0 W/m² | - |
| 1778126767 | 2.22° C | 78% | 1014.8 hPa | 0 mm | - | 0 W/m² | - |
| 1778126463 | 2.22° C | 76% | 1014.6 hPa | 0 mm | - | 0 W/m² | - |
| 1778126159 | 2.22° C | 75% | 1014.9 hPa | 0 mm | - | 0 W/m² | - |
| 1778125856 | 2.22° C | 75% | 1015 hPa | 0 mm | - | 0 W/m² | - |
| 1778125552 | 2.22° C | 76% | 1014.9 hPa | 0 mm | - | 0 W/m² | - |
| 1778125250 | 2.22° C | 75% | 1015.2 hPa | 0 mm | - | 0 W/m² | - |
| 1778124949 | 2.22° C | 74% | 1015.2 hPa | 0 mm | - | 0 W/m² | - |
| 1778124645 | 2.22° C | 75% | 1015.4 hPa | 0 mm | - | 0 W/m² | - |
* Rain latest hour (hover to see other rain measurements)
** Current wind speed in m/s (hover to see current wind gust speed)